TimeEDT,TemperatureF,Dew PointF,Humidity,Sea Level PressureIn,VisibilityMPH,Wind Direction,Wind SpeedMPH,Gust SpeedMPH,PrecipitationIn,Events,Conditions,WindDirDegrees,DateUTC
12:53 AM,64.0,63.0,96,29.80,6.0,East,8.1,-,0.17,Rain,Rain,80,2012-10-01 04:53:00
1:53 AM,64.0,63.0,96,29.80,4.0,East,8.1,-,0.15,Rain,Heavy Rain,100,2012-10-01 05:53:00
2:06 AM,64.4,62.6,94,29.83,5.0,East,8.1,-,0.05,Rain,Rain,90,2012-10-01 06:06:00
2:18 AM,64.4,62.6,94,29.83,5.0,East,6.9,-,0.08,Rain,Rain,100,2012-10-01 06:18:00
2:53 AM,64.0,63.0,96,29.78,5.0,East,8.1,-,0.25,Rain,Rain,100,2012-10-01 06:53:00
3:53 AM,64.0,63.0,96,29.76,10.0,East,8.1,-,0.06,,Overcast,100,2012-10-01 07:53:00
4:53 AM,63.0,62.1,97,29.75,10.0,East,8.1,-,0.05,Rain,Light Rain,80,2012-10-01 08:53:00
5:53 AM,62.1,61.0,96,29.75,10.0,East,8.1,-,0.01,,Overcast,80,2012-10-01 09:53:00
6:53 AM,62.1,61.0,96,29.76,10.0,East,10.4,-,0.00,,Overcast,80,2012-10-01 10:53:00
7:53 AM,62.1,61.0,96,29.78,6.0,East,11.5,-,0.02,Rain,Light Rain,90,2012-10-01 11:53:00
8:29 AM,62.6,60.8,94,29.81,4.0,East,12.7,19.6,0.01,Rain,Light Rain,80,2012-10-01 12:29:00
8:44 AM,62.6,60.8,94,29.81,2.5,East,11.5,-,0.01,Rain,Light Rain,90,2012-10-01 12:44:00
8:53 AM,62.1,61.0,96,29.77,2.5,East,10.4,-,0.01,,Overcast,90,2012-10-01 12:53:00
9:11 AM,62.6,60.8,94,29.81,2.0,East,10.4,-,N/A,,Overcast,90,2012-10-01 13:11:00
9:24 AM,62.6,60.8,94,29.80,1.5,East,11.5,18.4,0.00,Rain,Light Rain,80,2012-10-01 13:24:00
9:33 AM,62.6,60.8,94,29.80,1.8,East,10.4,-,0.00,Rain,Light Rain,80,2012-10-01 13:33:00
9:40 AM,62.6,60.8,94,29.80,1.2,East,12.7,-,0.00,Rain,Light Rain,90,2012-10-01 13:40:00
9:53 AM,62.1,62.1,100,29.78,1.2,East,8.1,-,0.01,Rain,Light Rain,90,2012-10-01 13:53:00
10:01 AM,62.6,62.6,100,29.80,2.0,East,9.2,-,0.00,Rain,Light Rain,90,2012-10-01 14:01:00
10:06 AM,62.6,62.6,100,29.80,3.0,East,10.4,-,0.00,Rain,Light Rain,90,2012-10-01 14:06:00
10:19 AM,62.6,62.6,100,29.80,2.0,East,9.2,-,0.00,Rain,Light Rain,90,2012-10-01 14:19:00
10:35 AM,62.6,62.6,100,29.81,2.5,East,10.4,-,0.01,Rain,Light Rain,80,2012-10-01 14:35:00
10:42 AM,62.6,62.6,100,29.81,3.0,East,10.4,-,0.01,Rain,Light Rain,100,2012-10-01 14:42:00
10:53 AM,63.0,62.1,97,29.77,3.0,East,10.4,-,0.02,Rain,Light Rain,80,2012-10-01 14:53:00
11:01 AM,62.6,62.6,100,29.81,2.5,East,9.2,-,0.03,Rain,Light Rain,100,2012-10-01 15:01:00
11:08 AM,62.6,62.6,100,29.80,5.0,East,12.7,-,0.03,Rain,Light Rain,80,2012-10-01 15:08:00
11:39 AM,62.6,62.6,100,29.80,2.0,East,8.1,-,0.11,Rain,Rain,80,2012-10-01 15:39:00
11:42 AM,62.6,62.6,100,29.79,1.5,ENE,8.1,-,0.16,Rain,Heavy Rain,60,2012-10-01 15:42:00
11:49 AM,62.6,62.6,100,29.80,2.0,East,6.9,-,0.18,Rain,Light Rain,90,2012-10-01 15:49:00
11:51 AM,62.6,62.6,100,29.80,4.0,East,4.6,-,0.18,Rain,Light Rain,100,2012-10-01 15:51:00
11:53 AM,63.0,62.1,97,29.77,6.0,Calm,Calm,-,0.18,Rain,Light Rain,0,2012-10-01 15:53:00
12:01 PM,62.6,62.6,100,29.80,1.8,Variable,4.6,-,0.11,Rain,Rain,0,2012-10-01 16:01:00
12:04 PM,62.6,62.6,100,29.80,1.0,Calm,Calm,-,0.17,Rain,Heavy Rain,0,2012-10-01 16:04:00
12:15 PM,62.6,62.6,100,29.79,2.0,East,10.4,-,0.26,Rain,Heavy Rain,90,2012-10-01 16:15:00
12:20 PM,62.6,62.6,100,29.79,3.0,ENE,10.4,16.1,0.27,Rain,Heavy Rain,70,2012-10-01 16:20:00
12:32 PM,64.4,62.6,94,29.79,6.0,East,13.8,-,0.30,Rain,Light Rain,90,2012-10-01 16:32:00
12:53 PM,64.0,62.1,93,29.76,5.0,East,9.2,-,0.33,Rain,Rain,90,2012-10-01 16:53:00
1:30 PM,64.4,62.6,94,29.77,6.0,East,10.4,-,0.06,Rain,Light Rain,100,2012-10-01 17:30:00
1:53 PM,64.9,64.0,97,29.74,10.0,East,9.2,-,0.08,Rain,Light Rain,90,2012-10-01 17:53:00
2:53 PM,66.0,64.9,96,29.70,2.5,East,11.5,-,0.28,Rain,Heavy Rain,90,2012-10-01 18:53:00
2:57 PM,66.2,64.4,94,29.73,1.8,East,11.5,-,0.05,Rain,Heavy Rain,90,2012-10-01 18:57:00
3:09 PM,66.2,64.4,94,29.72,2.5,East,16.1,21.9,0.13,Rain,Rain,90,2012-10-01 19:09:00
3:18 PM,66.2,64.4,94,29.72,2.0,East,11.5,21.9,0.18,Rain,Heavy Rain,100,2012-10-01 19:18:00
3:26 PM,66.2,64.4,94,29.72,3.0,East,16.1,21.9,0.20,Rain,Rain,100,2012-10-01 19:26:00
3:40 PM,66.2,64.4,94,29.73,2.5,ESE,11.5,18.4,0.26,Rain,Heavy Rain,120,2012-10-01 19:40:00
3:43 PM,66.2,64.4,94,29.74,1.8,SSE,9.2,18.4,0.33,Rain,Heavy Rain,150,2012-10-01 19:43:00
3:53 PM,66.9,66.0,97,29.70,1.0,East,5.8,-,0.45,Rain,Heavy Rain,100,2012-10-01 19:53:00
3:56 PM,66.2,66.2,100,29.73,2.0,ESE,9.2,-,0.01,Rain,Heavy Rain,110,2012-10-01 19:56:00
4:01 PM,66.2,66.2,100,29.73,3.0,ESE,6.9,-,0.02,Rain,Rain,110,2012-10-01 20:01:00
4:14 PM,66.2,66.2,100,29.73,4.0,East,6.9,-,0.05,Rain,Light Rain,100,2012-10-01 20:14:00
4:32 PM,66.2,66.2,100,29.70,2.0,ENE,9.2,-,0.14,Rain,Heavy Rain,70,2012-10-01 20:32:00
4:40 PM,66.2,66.2,100,29.72,1.5,Variable,4.6,-,0.26,Rain,Heavy Rain,0,2012-10-01 20:40:00
4:43 PM,66.2,66.2,100,29.72,0.8,North,4.6,-,0.38,Rain,Heavy Rain,10,2012-10-01 20:43:00
4:53 PM,66.0,64.9,96,29.69,0.5,WNW,10.4,-,0.67,Fog-Rain,Heavy Rain,290,2012-10-01 20:53:00
5:20 PM,66.2,64.4,94,29.72,1.5,ENE,3.5,-,0.53,Rain,Light Rain,60,2012-10-01 21:20:00
5:22 PM,66.2,64.4,94,29.72,3.0,NE,3.5,-,0.53,Rain,Light Rain,50,2012-10-01 21:22:00
6:53 PM,64.9,64.0,97,29.68,10.0,ENE,5.8,-,0.03,Rain,Light Rain,70,2012-10-01 22:53:00
7:30 PM,66.2,64.4,94,29.70,10.0,East,4.6,-,0.06,Rain,Light Rain,80,2012-10-01 23:30:00
7:42 PM,66.2,64.4,94,29.71,3.0,East,3.5,-,0.14,Rain-Thunderstorm,Heavy Rain,90,2012-10-01 23:42:00
7:45 PM,66.2,64.4,94,29.70,2.0,NNE,3.5,-,0.23,Rain-Thunderstorm,Heavy Rain,30,2012-10-01 23:45:00
7:47 PM,66.2,64.4,94,29.70,1.5,Calm,Calm,-,0.30,Rain-Thunderstorm,Heavy Rain,0,2012-10-01 23:47:00
7:51 PM,66.2,64.4,94,29.71,1.0,Calm,Calm,-,0.43,Rain-Thunderstorm,Heavy Rain,0,2012-10-01 23:51:00
7:53 PM,66.0,64.9,96,29.68,1.0,North,4.6,-,0.49,Rain-Thunderstorm,Heavy Rain,10,2012-10-01 23:53:00
8:03 PM,66.2,64.4,94,29.73,1.2,West,17.3,-,0.38,Rain-Thunderstorm,Heavy Rain,270,2012-10-02 00:03:00
8:10 PM,66.2,64.4,94,29.73,1.0,SSE,11.5,23.0,0.63,Rain,Heavy Rain,150,2012-10-02 00:10:00
8:15 PM,66.2,66.2,100,29.74,1.8,SSE,8.1,23.0,0.66,Rain,Heavy Rain,160,2012-10-02 00:15:00
8:17 PM,66.2,66.2,100,29.74,2.5,SSE,8.1,23.0,0.67,Rain,Heavy Rain,160,2012-10-02 00:17:00
8:25 PM,66.2,66.2,100,29.73,5.0,SE,8.1,-,0.68,Rain,Light Rain,130,2012-10-02 00:25:00
8:36 PM,68.0,66.2,94,29.73,7.0,ESE,9.2,-,0.69,Rain,Light Rain,120,2012-10-02 00:36:00
8:53 PM,68.0,66.9,96,29.71,10.0,ESE,4.6,-,0.69,,Overcast,110,2012-10-02 00:53:00
9:01 PM,68.0,66.2,94,29.74,10.0,ESE,6.9,-,N/A,,Overcast,110,2012-10-02 01:01:00
9:09 PM,66.2,66.2,100,29.74,10.0,East,8.1,-,0.00,Rain,Light Rain,100,2012-10-02 01:09:00
9:53 PM,64.9,64.9,100,29.71,10.0,East,6.9,-,0.07,Rain,Light Rain,90,2012-10-02 01:53:00
10:55 PM,64.4,64.4,100,29.74,1.8,East,12.7,-,0.09,Rain,Heavy Rain,80,2012-10-02 02:55:00
10:58 PM,64.4,64.4,100,29.74,1.5,East,12.7,-,0.12,Rain,Heavy Rain,80,2012-10-02 02:58:00
11:03 PM,64.4,62.6,94,29.75,2.0,East,13.8,-,0.14,Rain,Rain,100,2012-10-02 03:03:00
11:05 PM,64.4,62.6,94,29.75,3.0,East,11.5,-,0.16,Rain,Rain,90,2012-10-02 03:05:00
11:16 PM,64.4,62.6,94,29.75,4.0,East,11.5,-,0.21,Rain,Rain,80,2012-10-02 03:16:00
11:29 PM,64.4,64.4,100,29.74,3.0,ENE,6.9,-,0.39,Rain-Thunderstorm,Heavy Rain,70,2012-10-02 03:29:00
11:38 PM,64.4,62.6,94,29.73,2.0,ENE,6.9,-,0.53,Rain,Heavy Rain,70,2012-10-02 03:38:00
11:42 PM,64.4,62.6,94,29.75,2.5,Variable,6.9,-,0.61,Rain,Heavy Rain,0,2012-10-02 03:42:00
11:48 PM,64.4,62.6,94,29.75,4.0,WSW,13.8,-,0.64,Rain,Rain,240,2012-10-02 03:48:00
11:53 PM,64.9,64.0,97,29.71,8.0,Calm,Calm,-,0.64,Rain,Light Rain,0,2012-10-02 03:53:00